sat.trackr.live / text

‹ back to catalog

STARLINK-36039

NORAD 66612 · 2025-270AA

PAYLOAD ACTIVE UNKNOWN

§ Identity

Operator
Country
US
Launch date
2025-11-22
Launch site
AFETR
Launch vehicle
Mass (kg)
RCS (m²)

Purposes: comms

External: N2YO · Heavens-Above · Gunter

§ Orbital elements

Epoch: 2026-09-20T16:06:04.819968Z

Period
94.27 min
Inclination
43.0032°
Eccentricity
0.0001238
Mean motion
15.27579672 rev/d
Perigee alt
482.2 km
Apogee alt
483.9 km
Semi-major
6,861.2 km
B*
4.5101e-4
RAAN
35.2081°
Arg perigee
282.4868°
Mean anomaly
77.5845°
Rev number
4,752

§ Raw data

STARLINK-360391 66612U 25270AA  26263.67088912  .00012169  00000+0  45101-3 0  99992 66612  43.0032  35.2081 0001238 282.4868  77.5845 15.27579672 47521

JSON: /api/v1/satellites/66612 · /tle

For live sub-satellite position, see the globe view (requires WebGL).

§ Visibility from observer

Set your observer location to see the next 7 days of passes ≥ 10°. The values pass through the URL so the page stays shareable.

No JS? Fill the form by hand. The geolocation button needs JavaScript.